User: anonymous   Login
Location: Cz?stochówka
(50.8142°N, 19.0915°E)
Time: 14:25:11
(UTC+00:00)
Language:

USA 32 - Orbit

View from above orbital plane
View from above orbital plane
View from above satellite
View from above satellite

Ground track
Ground track

The orbit is defined by the following mean orbital elements,

1 19460U          26071.75591355 +.00000000 +00000-0 +69121-4 0 00002
2 19460  84.9918 169.1237 0004734  71.6130 288.5578 14.34416115    09
Epoch (UTC): 12 March 2026 18:08:30
Eccentricity: 0.0004734
inclination: 84.9918°
perigee height: 774 km
apogee height: 780 km
right ascension of ascending node: 169.1237°
argument of perigee: 71.6130°
revolutions per day: 14.34416115
mean anomaly at epoch: 288.5578°

The dashed part of the orbit path shows where the satellite is in the earth's shadow,  

DLR